Tracking 30166 objects as of 22-Jan-2025
HD Live streaming from Space Station
objects crossing your sky now

STARLINK-2752

Track STARLINK-2752 now!
10-day predictions
STARLINK-2752 is classified as:


NORAD ID: 48692
Int'l Code: 2021-044BG
Perigee: 553.4 km
Apogee: 555.2 km
Inclination: 53.1 °
Period: 95.6 minutes
Semi major axis: 6925 km
RCS: Unknown
Launch date: May 26, 2021
Source: United States (US)
Launch site: AIR FORCE EASTERN TEST RANGE (AFETR)
Your satellite tracking list
Your tracking list is empty




NASA's NSSDC Master Catalog

Two Line Element Set (TLE):
1 48692U 21044BG  25022.23895471  .00016862  00000-0  11481-2 0  9990
2 48692  53.0543 123.8171 0001301 107.8543 252.2588 15.06402849203160
Source of the keplerian elements: AFSPC